Time,TemperatureF,DewpointF,PressureIn,WindDirection,WindDirectionDegrees,WindSpeedMPH,WindSpeedGustMPH,Humidity,HourlyPrecipIn,Conditions,Clouds,dailyrainin,SoftwareType,DateUTC
2013-02-01 00:03:00,31.0,6.0,-100.00,WSW,246,12.0,28.0,34,0.00,,,-99.99,,2013-02-01 05:03:00,
2013-02-01 00:12:00,31.0,7.0,-100.00,WSW,246,12.0,26.0,36,0.00,,,-99.99,,2013-02-01 05:12:00,
2013-02-01 00:22:00,31.0,7.0,-100.00,WSW,247,11.0,24.0,36,0.00,,,-99.99,,2013-02-01 05:22:00,
2013-02-01 00:32:00,31.0,8.0,-100.00,WSW,244,12.0,25.0,38,0.00,,,-99.99,,2013-02-01 05:32:00,
2013-02-01 00:42:00,30.0,8.0,-100.00,WSW,246,11.0,21.0,37,0.00,,,-99.99,,2013-02-01 05:42:00,
2013-02-01 00:52:00,30.0,7.0,-100.00,WSW,243,12.0,30.0,36,0.00,,,-99.99,,2013-02-01 05:52:00,
2013-02-01 01:02:00,30.0,8.0,-100.00,WSW,244,10.0,19.0,39,0.00,,,-99.99,,2013-02-01 06:02:00,
2013-02-01 01:11:00,30.0,8.0,-100.00,WSW,247,10.0,17.0,39,0.00,,,-99.99,,2013-02-01 06:11:00,
2013-02-01 01:22:00,30.0,9.0,-100.00,WSW,244,8.0,16.0,40,0.00,,,-99.99,,2013-02-01 06:22:00,
2013-02-01 01:32:00,30.0,9.0,-100.00,WSW,244,9.0,17.0,41,0.00,,,-99.99,,2013-02-01 06:32:00,
2013-02-01 01:42:00,30.0,9.0,-100.00,WSW,247,13.0,30.0,41,0.00,,,-99.99,,2013-02-01 06:42:00,
2013-02-01 01:52:00,30.0,9.0,-100.00,WSW,247,12.0,24.0,41,0.00,,,-99.99,,2013-02-01 06:52:00,
2013-02-01 02:02:00,30.0,10.0,-100.00,WSW,247,11.0,22.0,43,0.00,,,-99.99,,2013-02-01 07:02:00,
2013-02-01 02:12:00,30.0,9.0,-100.00,WSW,247,10.0,21.0,42,0.00,,,-99.99,,2013-02-01 07:12:00,
2013-02-01 02:22:00,29.0,9.0,-100.00,WSW,241,9.0,19.0,42,0.00,,,-99.99,,2013-02-01 07:22:00,
2013-02-01 02:32:00,30.0,10.0,-100.00,WSW,246,10.0,20.0,43,0.00,,,-99.99,,2013-02-01 07:32:00,
2013-02-01 02:42:00,29.0,10.0,-100.00,WSW,244,11.0,23.0,43,0.00,,,-99.99,,2013-02-01 07:42:00,
2013-02-01 02:51:00,29.0,10.0,-100.00,WSW,243,12.0,25.0,43,0.00,,,-99.99,,2013-02-01 07:51:00,
2013-02-01 03:01:00,29.0,10.0,-100.00,WSW,243,11.0,24.0,44,0.00,,,-99.99,,2013-02-01 08:01:00,
2013-02-01 03:11:00,29.0,9.0,-100.00,WSW,244,12.0,23.0,42,0.00,,,-99.99,,2013-02-01 08:11:00,
2013-02-01 03:21:00,29.0,9.0,-100.00,WSW,247,11.0,24.0,43,0.00,,,-99.99,,2013-02-01 08:21:00,
2013-02-01 03:32:00,29.0,9.0,-100.00,WSW,246,12.0,27.0,44,0.00,,,-99.99,,2013-02-01 08:32:00,
2013-02-01 03:42:00,29.0,8.0,-100.00,WSW,240,11.0,20.0,42,0.00,,,-99.99,,2013-02-01 08:42:00,
2013-02-01 03:52:00,29.0,9.0,-100.00,WSW,241,12.0,26.0,42,0.00,,,-99.99,,2013-02-01 08:52:00,
2013-02-01 04:02:00,29.0,9.0,-100.00,WSW,247,9.0,21.0,44,0.00,,,-99.99,,2013-02-01 09:02:00,
2013-02-01 04:11:00,28.0,8.0,-100.00,WSW,243,11.0,19.0,42,0.00,,,-99.99,,2013-02-01 09:11:00,
2013-02-01 04:21:00,28.0,9.0,-100.00,WSW,247,13.0,26.0,44,0.00,,,-99.99,,2013-02-01 09:21:00,
2013-02-01 04:32:00,28.0,9.0,-100.00,WSW,248,10.0,19.0,44,0.00,,,-99.99,,2013-02-01 09:32:00,
2013-02-01 04:42:00,28.0,8.0,-100.00,WSW,244,11.0,19.0,42,0.00,,,-99.99,,2013-02-01 09:42:00,
2013-02-01 04:51:00,28.0,7.0,-100.00,WSW,240,12.0,24.0,41,0.00,,,-99.99,,2013-02-01 09:51:00,
2013-02-01 05:01:00,28.0,7.0,-100.00,WSW,244,10.0,19.0,41,0.00,,,-99.99,,2013-02-01 10:01:00,
2013-02-01 05:11:00,28.0,9.0,-100.00,WSW,250,9.0,16.0,44,0.00,,,-99.99,,2013-02-01 10:11:00,
2013-02-01 05:21:00,28.0,7.0,-100.00,WSW,248,10.0,21.0,41,0.00,,,-99.99,,2013-02-01 10:21:00,
2013-02-01 05:32:00,28.0,8.0,-100.00,WSW,246,13.0,28.0,41,0.00,,,-99.99,,2013-02-01 10:32:00,
2013-02-01 05:42:00,28.0,7.0,-100.00,WSW,253,9.0,19.0,40,0.00,,,-99.99,,2013-02-01 10:42:00,
2013-02-01 05:52:00,28.0,8.0,-100.00,WSW,247,9.0,17.0,43,0.00,,,-99.99,,2013-02-01 10:52:00,
2013-02-01 06:02:00,28.0,8.0,-100.00,WSW,253,9.0,23.0,44,0.00,,,-99.99,,2013-02-01 11:02:00,
2013-02-01 06:11:00,27.0,8.0,-100.00,WSW,250,9.0,18.0,42,0.00,,,-99.99,,2013-02-01 11:11:00,
2013-02-01 06:22:00,27.0,9.0,-100.00,WSW,251,9.0,17.0,44,0.00,,,-99.99,,2013-02-01 11:22:00,
2013-02-01 06:32:00,27.0,15.0,-100.00,West,278,7.0,17.0,59,0.00,,,-99.99,,2013-02-01 11:32:00,
2013-02-01 06:42:00,27.0,16.0,-100.00,WNW,292,9.0,15.0,64,0.00,,,-99.99,,2013-02-01 11:42:00,
2013-02-01 06:53:00,26.0,17.0,-100.00,WNW,295,9.0,17.0,69,0.00,,,-99.99,,2013-02-01 11:53:00,
2013-02-01 07:03:00,26.0,17.0,-100.00,WNW,292,8.0,13.0,70,0.00,,,-99.99,,2013-02-01 12:03:00,
2013-02-01 07:12:00,26.0,18.0,-100.00,WNW,295,7.0,12.0,71,0.00,,,-99.99,,2013-02-01 12:12:00,
2013-02-01 07:22:00,26.0,18.0,-100.00,WNW,292,7.0,12.0,71,0.00,,,-99.99,,2013-02-01 12:22:00,
2013-02-01 07:32:00,26.0,17.0,-100.00,WNW,294,6.0,11.0,70,0.00,,,-99.99,,2013-02-01 12:32:00,
2013-02-01 07:42:00,26.0,17.0,-100.00,WNW,287,6.0,9.0,71,0.00,,,-99.99,,2013-02-01 12:42:00,
2013-02-01 07:52:00,26.0,17.0,-100.00,WNW,292,5.0,9.0,71,0.00,,,-99.99,,2013-02-01 12:52:00,
2013-02-01 08:02:00,26.0,17.0,-100.00,West,268,3.0,9.0,71,0.00,,,-99.99,,2013-02-01 13:02:00,
2013-02-01 08:12:00,-999.0,-99.9,-100.00,WSW,244,4.0,9.0,-999,-99.99,,,-99.99,,2013-02-01 13:12:00,
2013-02-01 08:22:00,26.0,16.0,-100.00,WSW,251,4.0,11.0,66,0.00,,,-99.99,,2013-02-01 13:22:00,
2013-02-01 08:33:00,26.0,16.0,-100.00,WSW,237,6.0,12.0,64,0.00,,,-99.99,,2013-02-01 13:33:00,
2013-02-01 08:42:00,27.0,15.0,-100.00,SW,236,4.0,11.0,59,0.00,,,-99.99,,2013-02-01 13:42:00,
2013-02-01 08:52:00,28.0,14.0,-100.00,WSW,237,6.0,12.0,56,0.00,,,-99.99,,2013-02-01 13:52:00,
2013-02-01 09:03:00,28.0,11.0,-100.00,WSW,243,6.0,16.0,48,0.00,,,-99.99,,2013-02-01 14:03:00,
2013-02-01 09:11:00,29.0,11.0,-100.00,WSW,241,7.0,19.0,46,0.00,,,-99.99,,2013-02-01 14:11:00,
2013-02-01 09:22:00,29.0,10.0,-100.00,SW,234,7.0,16.0,44,0.00,,,-99.99,,2013-02-01 14:22:00,
2013-02-01 09:32:00,29.0,10.0,-100.00,WSW,247,9.0,19.0,45,0.00,,,-99.99,,2013-02-01 14:32:00,
2013-02-01 09:42:00,29.0,9.0,-100.00,WSW,251,10.0,22.0,41,0.00,,,-99.99,,2013-02-01 14:42:00,
2013-02-01 09:52:00,30.0,8.0,-100.00,WSW,250,10.0,21.0,40,0.00,,,-99.99,,2013-02-01 14:52:00,
2013-02-01 10:02:00,30.0,7.0,-100.00,WSW,246,10.0,21.0,37,0.00,,,-99.99,,2013-02-01 15:02:00,
2013-02-01 10:12:00,-999.0,-99.9,-100.00,WSW,250,11.0,23.0,-999,-99.99,,,-99.99,,2013-02-01 15:12:00,
2013-02-01 10:22:00,29.0,9.0,-100.00,West,272,10.0,23.0,43,0.00,,,-99.99,,2013-02-01 15:22:00,
2013-02-01 10:33:00,29.0,8.0,-100.00,West,263,9.0,19.0,39,0.00,,,-99.99,,2013-02-01 15:33:00,
2013-02-01 10:42:00,29.0,9.0,-100.00,West,280,9.0,20.0,42,0.00,,,-99.99,,2013-02-01 15:42:00,
2013-02-01 10:52:00,30.0,9.0,-100.00,West,277,7.0,17.0,41,0.00,,,-99.99,,2013-02-01 15:52:00,
2013-02-01 11:03:00,30.0,10.0,-100.00,West,281,7.0,20.0,42,0.00,,,-99.99,,2013-02-01 16:03:00,
2013-02-01 11:11:00,31.0,9.0,-100.00,West,261,9.0,21.0,39,0.00,,,-99.99,,2013-02-01 16:11:00,
2013-02-01 11:22:00,29.0,8.0,-100.00,WNW,282,11.0,18.0,40,0.00,,,-99.99,,2013-02-01 16:22:00,
2013-02-01 11:33:00,29.0,10.0,-100.00,West,280,11.0,21.0,44,0.00,,,-99.99,,2013-02-01 16:33:00,
2013-02-01 11:43:00,29.0,10.0,-100.00,WNW,282,9.0,19.0,44,0.00,,,-99.99,,2013-02-01 16:43:00,
2013-02-01 11:52:00,29.0,11.0,-100.00,WNW,301,11.0,17.0,48,0.00,,,-99.99,,2013-02-01 16:52:00,
2013-02-01 12:03:00,29.0,9.0,-100.00,NW,305,12.0,21.0,42,0.00,,,-99.99,,2013-02-01 17:03:00,
2013-02-01 12:12:00,29.0,10.0,-100.00,WNW,294,12.0,22.0,45,0.00,,,-99.99,,2013-02-01 17:12:00,
2013-02-01 12:22:00,29.0,9.0,-100.00,WNW,292,12.0,21.0,43,0.00,,,-99.99,,2013-02-01 17:22:00,
2013-02-01 12:32:00,29.0,8.0,-100.00,WNW,291,12.0,20.0,40,0.00,,,-99.99,,2013-02-01 17:32:00,
2013-02-01 12:42:00,29.0,7.0,-100.00,WNW,288,14.0,22.0,39,0.00,,,-99.99,,2013-02-01 17:42:00,
2013-02-01 12:52:00,30.0,6.0,-100.00,WNW,285,13.0,24.0,36,0.00,,,-99.99,,2013-02-01 17:52:00,
2013-02-01 13:03:00,30.0,8.0,-100.00,WNW,287,14.0,22.0,39,0.00,,,-99.99,,2013-02-01 18:03:00,
2013-02-01 13:12:00,30.0,7.0,-100.00,WNW,298,11.0,20.0,38,0.00,,,-99.99,,2013-02-01 18:12:00,
2013-02-01 13:22:00,29.0,5.0,-100.00,WNW,302,13.0,21.0,34,0.00,,,-99.99,,2013-02-01 18:22:00,
2013-02-01 13:32:00,29.0,5.0,-100.00,WNW,301,14.0,24.0,35,0.00,,,-99.99,,2013-02-01 18:32:00,
2013-02-01 13:42:00,29.0,5.0,-100.00,WNW,292,12.0,21.0,34,0.00,,,-99.99,,2013-02-01 18:42:00,
2013-02-01 13:52:00,30.0,6.0,-100.00,WNW,298,13.0,22.0,35,0.00,,,-99.99,,2013-02-01 18:52:00,
2013-02-01 14:03:00,30.0,6.0,-100.00,WNW,298,13.0,21.0,36,0.00,,,-99.99,,2013-02-01 19:03:00,
2013-02-01 14:12:00,30.0,6.0,-100.00,WNW,298,12.0,18.0,37,0.00,,,-99.99,,2013-02-01 19:12:00,
2013-02-01 14:21:00,29.0,4.0,-100.00,WNW,298,14.0,22.0,34,0.00,,,-99.99,,2013-02-01 19:21:00,
2013-02-01 14:32:00,29.0,5.0,-100.00,WNW,294,14.0,26.0,35,0.00,,,-99.99,,2013-02-01 19:32:00,
2013-02-01 14:42:00,29.0,6.0,-100.00,WNW,299,13.0,24.0,36,0.00,,,-99.99,,2013-02-01 19:42:00,
2013-02-01 14:51:00,30.0,7.0,-100.00,WNW,298,11.0,18.0,38,0.00,,,-99.99,,2013-02-01 19:51:00,
2013-02-01 15:02:00,30.0,7.0,-100.00,WNW,291,9.0,16.0,37,0.00,,,-99.99,,2013-02-01 20:02:00,
2013-02-01 15:11:00,30.0,5.0,-100.00,NW,305,10.0,19.0,35,0.00,,,-99.99,,2013-02-01 20:11:00,
2013-02-01 15:21:00,29.0,5.0,-100.00,WNW,302,14.0,21.0,35,0.00,,,-99.99,,2013-02-01 20:21:00,
2013-02-01 15:32:00,29.0,5.0,-100.00,WNW,298,13.0,23.0,35,0.00,,,-99.99,,2013-02-01 20:32:00,
2013-02-01 15:42:00,29.0,4.0,-100.00,WNW,301,12.0,19.0,33,0.00,,,-99.99,,2013-02-01 20:42:00,
2013-02-01 15:52:00,29.0,4.0,-100.00,WNW,298,12.0,21.0,34,0.00,,,-99.99,,2013-02-01 20:52:00,
2013-02-01 16:02:00,29.0,5.0,-100.00,WNW,299,13.0,20.0,35,0.00,,,-99.99,,2013-02-01 21:02:00,
2013-02-01 16:12:00,29.0,5.0,-100.00,WNW,298,11.0,16.0,36,0.00,,,-99.99,,2013-02-01 21:12:00,
2013-02-01 16:21:00,29.0,6.0,-100.00,WNW,296,11.0,18.0,37,0.00,,,-99.99,,2013-02-01 21:21:00,
2013-02-01 16:32:00,29.0,8.0,-100.00,WNW,287,9.0,17.0,40,0.00,,,-99.99,,2013-02-01 21:32:00,
2013-02-01 16:42:00,29.0,8.0,-100.00,WNW,291,9.0,16.0,40,0.00,,,-99.99,,2013-02-01 21:42:00,
2013-02-01 16:52:00,29.0,9.0,-100.00,WNW,289,9.0,16.0,43,0.00,,,-99.99,,2013-02-01 21:52:00,
2013-02-01 17:02:00,29.0,9.0,-100.00,WNW,284,7.0,14.0,42,0.00,,,-99.99,,2013-02-01 22:02:00,
2013-02-01 17:11:00,28.0,8.0,-100.00,WNW,291,7.0,15.0,42,0.00,,,-99.99,,2013-02-01 22:11:00,
2013-02-01 17:21:00,28.0,8.0,-100.00,WNW,291,9.0,17.0,41,0.00,,,-99.99,,2013-02-01 22:21:00,
2013-02-01 17:32:00,28.0,6.0,-100.00,WNW,289,9.0,16.0,40,0.00,,,-99.99,,2013-02-01 22:32:00,
2013-02-01 17:42:00,27.0,7.0,-100.00,WNW,294,10.0,16.0,42,0.00,,,-99.99,,2013-02-01 22:42:00,
2013-02-01 17:51:00,27.0,6.0,-100.00,WNW,295,12.0,19.0,39,0.00,,,-99.99,,2013-02-01 22:51:00,
2013-02-01 18:02:00,27.0,5.0,-100.00,WNW,295,11.0,19.0,39,0.00,,,-99.99,,2013-02-01 23:02:00,
2013-02-01 18:11:00,27.0,7.0,-100.00,WNW,294,12.0,19.0,43,0.00,,,-99.99,,2013-02-01 23:11:00,
2013-02-01 18:21:00,26.0,5.0,-100.00,WNW,294,14.0,24.0,40,0.00,,,-99.99,,2013-02-01 23:21:00,
2013-02-01 18:32:00,26.0,6.0,-100.00,WNW,295,13.0,19.0,42,0.00,,,-99.99,,2013-02-01 23:32:00,
2013-02-01 18:42:00,25.0,5.0,-100.00,WNW,295,13.0,21.0,40,0.00,,,-99.99,,2013-02-01 23:42:00,
2013-02-01 18:52:00,25.0,4.0,-100.00,WNW,295,12.0,20.0,40,0.00,,,-99.99,,2013-02-01 23:52:00,
2013-02-01 19:02:00,25.0,5.0,-100.00,WNW,295,12.0,21.0,42,0.00,,,-99.99,,2013-02-02 00:02:00,
2013-02-01 19:11:00,24.0,4.0,-100.00,WNW,292,12.0,22.0,42,0.00,,,-99.99,,2013-02-02 00:11:00,
2013-02-01 19:21:00,24.0,4.0,-100.00,WNW,295,14.0,22.0,42,0.00,,,-99.99,,2013-02-02 00:21:00,
2013-02-01 19:32:00,24.0,7.0,-100.00,WNW,294,13.0,21.0,48,0.00,,,-99.99,,2013-02-02 00:32:00,
2013-02-01 19:42:00,24.0,4.0,-100.00,WNW,299,13.0,22.0,42,0.00,,,-99.99,,2013-02-02 00:42:00,
2013-02-01 19:52:00,-999.0,-99.9,-100.00,WNW,301,11.0,18.0,-999,-99.99,,,-99.99,,2013-02-02 00:52:00,
2013-02-01 20:02:00,23.0,4.0,-100.00,WNW,301,11.0,18.0,43,0.00,,,-99.99,,2013-02-02 01:02:00,
2013-02-01 20:11:00,23.0,4.0,-100.00,WNW,301,11.0,18.0,43,0.00,,,-99.99,,2013-02-02 01:11:00,
2013-02-01 20:21:00,23.0,5.0,-100.00,WNW,296,9.0,14.0,45,0.00,,,-99.99,,2013-02-02 01:21:00,
2013-02-01 20:32:00,23.0,6.0,-100.00,WNW,299,7.0,14.0,47,0.00,,,-99.99,,2013-02-02 01:32:00,
2013-02-01 20:42:00,23.0,5.0,-100.00,WNW,299,7.0,12.0,46,0.00,,,-99.99,,2013-02-02 01:42:00,
2013-02-01 20:52:00,22.0,6.0,-100.00,WNW,296,8.0,14.0,49,0.00,,,-99.99,,2013-02-02 01:52:00,
2013-02-01 21:01:00,23.0,7.0,-100.00,WNW,294,10.0,16.0,51,0.00,,,-99.99,,2013-02-02 02:01:00,
2013-02-01 21:11:00,22.0,7.0,-100.00,WNW,294,10.0,15.0,50,0.00,,,-99.99,,2013-02-02 02:11:00,
2013-02-01 21:21:00,22.0,6.0,-100.00,WNW,292,9.0,14.0,49,0.00,,,-99.99,,2013-02-02 02:21:00,
2013-02-01 21:32:00,22.0,7.0,-100.00,WNW,294,7.0,13.0,51,0.00,,,-99.99,,2013-02-02 02:32:00,
2013-02-01 21:42:00,22.0,7.0,-100.00,WNW,294,7.0,12.0,51,0.00,,,-99.99,,2013-02-02 02:42:00,
2013-02-01 21:52:00,22.0,6.0,-100.00,WNW,292,7.0,12.0,51,0.00,,,-99.99,,2013-02-02 02:52:00,
2013-02-01 22:02:00,22.0,6.0,-100.00,WNW,295,7.0,11.0,50,0.00,,,-99.99,,2013-02-02 03:02:00,
2013-02-01 22:12:00,-999.0,-99.9,-100.00,NW,305,6.0,11.0,-999,-99.99,,,-99.99,,2013-02-02 03:12:00,
2013-02-01 22:22:00,21.0,6.0,-100.00,NW,306,7.0,11.0,52,0.00,,,-99.99,,2013-02-02 03:22:00,
2013-02-01 22:32:00,21.0,6.0,-100.00,NW,309,9.0,14.0,52,0.00,,,-99.99,,2013-02-02 03:32:00,
2013-02-01 22:42:00,20.0,6.0,-100.00,NW,308,9.0,12.0,52,0.00,,,-99.99,,2013-02-02 03:42:00,
2013-02-01 23:02:00,20.0,5.0,-100.00,WNW,302,8.0,12.0,52,0.00,,,-99.99,,2013-02-02 04:02:00,
2013-02-01 23:11:00,20.0,5.0,-100.00,NW,308,9.0,16.0,51,0.00,,,-99.99,,2013-02-02 04:11:00,
2013-02-01 23:21:00,20.0,4.0,-100.00,NW,304,9.0,15.0,50,0.00,,,-99.99,,2013-02-02 04:21:00,
2013-02-01 23:32:00,20.0,6.0,-100.00,NW,306,8.0,13.0,55,0.00,,,-99.99,,2013-02-02 04:32:00,
2013-02-01 23:42:00,20.0,4.0,-100.00,NW,305,7.0,12.0,50,0.00,,,-99.99,,2013-02-02 04:42:00,
2013-02-01 23:52:00,19.0,4.0,-100.00,WNW,299,8.0,12.0,50,0.00,,,-99.99,,2013-02-02 04:52:00,